Погода в Троицком

Россия / Вологодская область     60°19′50″N   37°42′29″E
темп.,
°C
ветер,
м/с
пор.,
м/с
влажн.,
%
обл.,
%
осадки,
мм/ч
давл.,
гПа
погр.,
м
24 мая, вт
вт2400:00+1ссз71197100 1.3 1006755
03:000ссз81194100 2.4 1006841
06:00+1с7985100 0.4 1006805
09:00+2с687993 0.6 1007824
12:00+3с6770100 0.1 10091012
15:00+4ссв4672100 0.1 1011333
18:00+4ссв3576100 0.1 1012170
21:00+4с3580100 0.1 1014173
25 мая, ср
ср2500:00+3ссв468454 0.0 1014221
03:00+2ссв45845 0.0 1015145
06:00+2с458018 0.0 1016159
09:00+5зсз347296 0.0 1015146
12:00+6з566972 0.0 1014212
15:00+6зсз687094 0.0 1014201
18:00+7зсз686964 0.0 1013177
21:00+5ссз578063 0.0 1012109
26 мая, чт
чт2600:00+3ссз478963 0.0 1012148
03:00+2ссз478915 0.0 1011147
06:00+3сз458713 0.0 1010162
09:00+6зсз34779 0.0 1008124
12:00+6юз447688 0.0 100770
15:00+7вюв117313 0.0 100656
18:00+9вюв226610 0.0 1004133
21:00+8юв4469100 0.0 100230
27 мая, пт
пт2700:00+6ююв5685100 0.0 100166
03:00+5вюв4685100 0.0 99973
06:00+5вюв468999 0.0 99775
09:00+7юв3482100 0.0 99681
12:00+6вюв4597100 1.3 99674
15:00+6в4598100 3.7 99580
18:00+6вюв22100100 2.0 99534
21:00+6юз44100100 3.6 99558
28 мая, сб
сб2800:00+6юз5799100 1.3 99593
03:00+5ююв3497100 1.4 99541
06:00+6юз4598100 0.5 99455
09:00+6юз349297 0.5 99461
12:00+7в118912 0.0 994104
15:00+7з128637 0.1 993147
18:00+6зюз229136 0.8 99335
21:00+7зюз339865 2.1 99441